Weather History for Copper Mountain, CO

Change the Weather History Date:

Tuesday, March 18, 2014

  Actual Average (KLXV) Record (KLXV)
Temperature  
Mean Temperature 12 °F -  
Max Temperature 17 °F 37 °F 51 °F (2007)
Min Temperature 8 °F 12 °F -11 °F (1988)
Degree Days  
Heating Degree Days 52 41  
Month to date heating degree days 764  
Since 1 July heating degree days 8474  
Cooling Degree Days 0 0  
Month to date cooling degree days 0  
Year to date cooling degree days 0  
Moisture  
Dew Point 5 °F    
Average Humidity 75    
Maximum Humidity 79    
Minimum Humidity 62    
Precipitation  
Precipitation 0.00 in 0.03 in 0.40 in (1979)
Month to date precipitation 0.52  
Year to date precipitation 1.84  
Sea Level Pressure  
Sea Level Pressure 29.75 in    
Wind  
Wind Speed 21 mph (West)    
Max Wind Speed 32 mph    
Max Gust Speed 41 mph    
T = Trace of Precipitation, MM = Missing Value Source: NWS Daily Summary

Daily Weather History Graph

Daily Weather History Graph

Search for Another Location

Airport:

Trip Planner

Search our weather history database for the weather conditions in past years. The results will help you decide how hot, cold, wet, or windy it might be!

Date:

Astronomy

Mar. 18, 2014 Rise Set
Actual Time 7:11 AM MDT 7:14 PM MDT
Civil Twilight 6:44 AM MDT 7:41 PM MDT
Nautical Twilight 6:13 AM MDT 8:12 PM MDT
Astronomical Twilight 5:41 AM MDT 8:44 PM MDT
Moon 9:34 PM MDT (3/18) 8:02 AM MDT (3/18)
Length of Visible Light 12h 57m
Length of Day
12h 03m
Waning Gibbous, 96% of the Moon is Illuminated
Mar 18
Waning Gibbous
Mar 23
Last Quarter
Mar 30
New
Apr 7
First Quarter
Apr 15
Full

Hourly Weather History & Observations

Time (MDT) Temp. Windchill Dew Point Humidity Pressure Visibility Wind Dir Wind Speed Gust Speed Precip Events Conditions
12:16 AM 12.2 °F -9.9 °F 5.0 °F 73% 29.57 in - West 32.2 mph 41.4 mph N/A   Overcast
12:36 AM 12.2 °F - 5.0 °F 73% 29.59 in - North - - N/A   Overcast
12:56 AM 10.4 °F -6.0 °F 5.0 °F 79% 29.60 in - WNW 15.0 mph 25.3 mph N/A   Overcast
1:16 AM 10.4 °F -3.3 °F 3.2 °F 73% 29.60 in - West 10.4 mph 18.4 mph N/A   Overcast
1:36 AM 10.4 °F -4.8 °F 3.2 °F 73% 29.60 in - West 12.7 mph - N/A   Overcast
1:56 AM 8.6 °F -8.3 °F 1.4 °F 73% 29.60 in - West 15.0 mph - N/A   Overcast
2:16 AM 8.6 °F -11.4 °F 1.4 °F 73% 29.60 in - West 21.9 mph - N/A   Overcast
2:36 AM 8.6 °F -10.5 °F 1.4 °F 73% 29.58 in - West 19.6 mph - N/A   Overcast
2:56 AM 8.6 °F - 1.4 °F 73% 29.59 in - North - - N/A   Overcast
3:16 AM 8.6 °F -11.4 °F 1.4 °F 73% 29.58 in - West 21.9 mph 26.5 mph N/A   Overcast
3:36 AM 8.6 °F -12.3 °F 1.4 °F 73% 29.57 in - West 24.2 mph 27.6 mph N/A   Overcast
3:56 AM 8.6 °F -10.0 °F 1.4 °F 73% 29.56 in - West 18.4 mph 27.6 mph N/A   Overcast
4:16 AM 8.6 °F -14.1 °F 1.4 °F 73% 29.55 in - West 29.9 mph 39.1 mph N/A   Overcast
4:36 AM 8.6 °F -14.5 °F 1.4 °F 73% 29.56 in - West 31.1 mph 38.0 mph N/A   Overcast
4:55 AM 8.6 °F - 1.4 °F 73% 29.56 in - North - - N/A   Overcast
5:16 AM 8.6 °F -11.0 °F 1.4 °F 73% 29.58 in - West 20.7 mph - N/A   Overcast
5:36 AM 8.6 °F -10.0 °F 1.4 °F 73% 29.58 in - West 18.4 mph - N/A   Overcast
5:56 AM 8.6 °F -7.7 °F 1.4 °F 73% 29.60 in - West 13.8 mph - N/A   Overcast
6:16 AM 8.6 °F -9.5 °F 1.4 °F 73% 29.61 in - West 17.3 mph 26.5 mph N/A   Overcast
6:36 AM 8.6 °F -10.0 °F 1.4 °F 73% 29.62 in - WNW 18.4 mph - N/A   Overcast
6:56 AM 8.6 °F -12.3 °F 1.4 °F 73% 29.60 in - West 24.2 mph 31.1 mph N/A   Overcast
7:16 AM 8.6 °F - 1.4 °F 73% 29.60 in - North - - N/A   Overcast
7:36 AM 8.6 °F - 1.4 °F 73% 29.61 in - North - - N/A   Overcast
7:56 AM 8.6 °F -11.9 °F 1.4 °F 73% 29.63 in - West 23.0 mph 32.2 mph N/A   Overcast
8:16 AM 8.6 °F -13.4 °F 1.4 °F 73% 29.63 in - West 27.6 mph 33.4 mph N/A   Overcast
8:36 AM 8.6 °F -12.7 °F 1.4 °F 73% 29.65 in - West 25.3 mph 33.4 mph N/A   Overcast
8:56 AM 10.4 °F - 3.2 °F 73% 29.67 in - North - - N/A   Overcast
9:16 AM 10.4 °F - 3.2 °F 73% 29.67 in - North - - N/A   Overcast
9:36 AM 10.4 °F - 5.0 °F 79% 29.68 in - North - - N/A   Overcast
9:56 AM 12.2 °F - 5.0 °F 73% 29.70 in - North - - N/A   Overcast
10:16 AM 12.2 °F - 5.0 °F 73% 29.71 in - North - - N/A   Overcast
10:36 AM 14.0 °F - 8.6 °F 79% 29.72 in - North - - N/A   Overcast
10:56 AM 12.2 °F -9.9 °F 5.0 °F 73% 29.71 in - WNW 32.2 mph 38.0 mph N/A   Overcast
11:15 AM 14.0 °F -6.5 °F 8.6 °F 79% 29.73 in - WNW 28.8 mph 36.8 mph N/A   Overcast
11:36 AM 14.0 °F -4.7 °F 8.6 °F 79% 29.75 in - WNW 23.0 mph 29.9 mph N/A   Overcast
11:56 AM 14.0 °F - 8.6 °F 79% 29.76 in - North - - N/A   Overcast
12:16 PM 14.0 °F -3.9 °F 8.6 °F 79% 29.77 in - WNW 20.7 mph 31.1 mph N/A   Overcast
12:36 PM 14.0 °F -3.4 °F 8.6 °F 79% 29.78 in - West 19.6 mph - N/A   Overcast
12:56 PM 14.0 °F -4.3 °F 8.6 °F 79% 29.79 in - West 21.9 mph 29.9 mph N/A   Overcast
1:16 PM 14.0 °F -5.1 °F 8.6 °F 79% 29.79 in - West 24.2 mph 31.1 mph N/A   Overcast
1:36 PM 14.0 °F -4.7 °F 8.6 °F 79% 29.80 in - WNW 23.0 mph 28.8 mph N/A   Overcast
1:56 PM 14.0 °F -5.8 °F 8.6 °F 79% 29.80 in - WNW 26.5 mph 32.2 mph N/A   Overcast
2:16 PM 14.0 °F -3.9 °F 8.6 °F 79% 29.80 in - West 20.7 mph 25.3 mph N/A   Overcast
2:36 PM 15.8 °F 0.3 °F 8.6 °F 73% 29.81 in - West 16.1 mph 27.6 mph N/A   Overcast
2:56 PM 14.0 °F -4.3 °F 8.6 °F 79% 29.81 in - West 21.9 mph - N/A   Overcast
3:16 PM 14.0 °F -4.3 °F 8.6 °F 79% 29.82 in - WNW 21.9 mph 27.6 mph N/A   Overcast
3:36 PM 15.8 °F -1.1 °F 6.8 °F 68% 29.84 in - WNW 19.6 mph 23.0 mph N/A   Overcast
3:56 PM 15.8 °F -0.6 °F 6.8 °F 68% 29.84 in - West 18.4 mph - N/A   Overcast
4:16 PM 15.8 °F -1.9 °F 5.0 °F 62% 29.84 in - West 21.9 mph - N/A   Overcast
4:36 PM 15.8 °F -0.2 °F 8.6 °F 73% 29.86 in - West 17.3 mph - N/A   Overcast
4:56 PM 14.0 °F -4.7 °F 8.6 °F 79% 29.86 in - WNW 23.0 mph - N/A   Overcast
5:16 PM 17.6 °F 1.3 °F 8.6 °F 68% 29.87 in - West 19.6 mph 23.0 mph N/A   Overcast
5:36 PM 14.0 °F -2.5 °F 8.6 °F 79% 29.88 in - WNW 17.3 mph - N/A   Overcast
5:56 PM 14.0 °F -3.0 °F 8.6 °F 79% 29.89 in - WNW 18.4 mph - N/A   Overcast
6:16 PM 14.0 °F -3.4 °F 5.0 °F 67% 29.89 in - West 19.6 mph - N/A   Overcast
6:36 PM 14.0 °F -2.0 °F 6.8 °F 73% 29.90 in - West 16.1 mph - N/A   Overcast
6:56 PM 14.0 °F -2.0 °F 8.6 °F 79% 29.91 in - West 16.1 mph - N/A   Overcast
7:16 PM 14.0 °F -2.0 °F 8.6 °F 79% 29.92 in - West 16.1 mph - N/A   Overcast
7:36 PM 14.0 °F -0.8 °F 8.6 °F 79% 29.92 in - West 13.8 mph - N/A   Overcast
7:56 PM 14.0 °F - 8.6 °F 79% 29.93 in - North - - N/A   Overcast
8:16 PM 14.0 °F 0.5 °F 8.6 °F 79% 29.94 in - West 11.5 mph - N/A   Overcast
8:36 PM 14.0 °F -0.8 °F 8.6 °F 79% 29.94 in - West 13.8 mph 18.4 mph N/A   Overcast
8:56 PM 14.0 °F -0.2 °F 8.6 °F 79% 29.95 in - West 12.7 mph - N/A   Overcast
9:16 PM 14.0 °F -1.4 °F 8.6 °F 79% 29.95 in - West 15.0 mph - N/A   Overcast
9:36 PM 14.0 °F -0.8 °F 8.6 °F 79% 29.96 in - West 13.8 mph - N/A   Overcast
9:56 PM 14.0 °F -0.8 °F 8.6 °F 79% 29.96 in - West 13.8 mph - N/A   Overcast
10:16 PM 14.0 °F -0.8 °F 8.6 °F 79% 29.96 in - West 13.8 mph - N/A   Overcast
10:36 PM 14.0 °F - 8.6 °F 79% 29.97 in - North - - N/A   Overcast
10:56 PM 12.2 °F - 5.0 °F 73% 29.97 in - North - - N/A   Overcast
11:16 PM 12.2 °F -3.1 °F 5.0 °F 73% 29.97 in - West 13.8 mph - N/A   Overcast
11:36 PM 12.2 °F -3.7 °F 5.0 °F 73% 29.97 in - West 15.0 mph - N/A   Overcast
11:56 PM 12.2 °F -3.1 °F 5.0 °F 73% 29.97 in - West 13.8 mph - N/A   Overcast